Left ArrowRight Arrow

Hourly Observations for November 14, 2020

Temp ( °F °C ) Dew Point ( °F °C ) Humidity (%) Winds ( mph kmh ) Pressure ( in mb ) Visibility ( mi km ) Precip ( " mm )
12:53 am 00:53 Clear 35 1.7 27 -2.8 72 72 SW 25 41 29.31 993 10 16 0.00 0.00
1:42 am 01:42 Clear 32 0 26 -3.3 79 79 SW 20 31 29.40 996 10 16 0.00 0.00
1:53 am 01:53 Clear 33 0.6 26 -3.3 75 75 SW 20 31 29.35 994 10 16 0.00 0.00
2:53 am 02:53 Cloudy 32 0 25 -3.9 75 75 SW 23 37 29.38 995 10 16 0.00 0.00
3:53 am 03:53 Mostly Clear 32 0 24 -4.4 73 73 WSW 26 43 29.40 996 10 16 0.00 0.00
4:53 am 04:53 Cloudy 34 1.1 25 -3.9 70 70 SW 31 50 29.41 996 10 16 0.00 0.00
5:53 am 05:53 Cloudy 33 0.6 26 -3.3 75 75 SW 21 33 29.44 997 10 16 0.00 0.00
6:53 am 06:53 Cloudy 33 0.6 26 -3.3 75 75 WSW 22 35 29.49 999 10 16 0.00 0.00
7:53 am 07:53 Cloudy 30 -1.1 24 -4.4 79 79 WNW 12 19 29.56 1001 10 16 0.00 0.00
8:41 am 08:41 Cloudy 29 -1.7 23 -5 78 78 WNW 16 26 29.68 1005 10 16 0.00 0.00
8:53 am 08:53 Cloudy 29 -1.7 23 -5 78 78 W 16 26 29.63 1004 10 16 0.00 0.00
9:16 am 09:16 Mostly Cloudy 29 -1.7 23 -5 78 78 W 14 22 29.70 1006 10 16 0.00 0.00
9:53 am 09:53 Cloudy 29 -1.7 24 -4.4 82 82 WSW 12 19 29.68 1005 10 16 0.00 0.00
10:02 am 10:02 Cloudy 29 -1.7 24 -4.4 82 82 WSW 13 20 29.75 1007 10 16 0.00 0.00
10:53 am 10:53 Cloudy 30 -1.1 25 -3.9 82 82 W 9 15 29.73 1007 10 16 0.00 0.00
11:32 am 11:32 Cloudy 30 -1.1 26 -3.3 85 85 WSW 12 19 29.80 1009 10 16 0.00 0.00
11:53 am 11:53 Cloudy 31 -0.6 26 -3.3 82 82 WSW 15 24 29.77 1008 10 16 0.00 0.00
12:18 pm 12:18 Cloudy 30 -1 27 -3 86 86 SW 16 26 29.83 1010 10 16 0.00 0.00
12:53 pm 12:53 Cloudy 32 0 26 -3.3 79 79 SW 16 26 29.80 1009 10 16 0.00 0.00
1:53 pm 13:53 Cloudy 32 0 26 -3.3 79 79 WSW 18 30 29.83 1010 10 16 0.00 0.00
2:53 pm 14:53 Cloudy 32 0 27 -2.8 82 82 WSW 14 22 29.87 1012 10 16 0.00 0.00
3:53 pm 15:53 Cloudy 31 -0.6 26 -3.3 82 82 WSW 15 24 29.90 1013 10 16 0.00 0.00
4:15 pm 16:15 Partly Cloudy 29 -1.7 25 -3.9 85 85 WSW 12 19 29.95 1014 10 16 0.00 0.00
4:53 pm 16:53 Clear 26 -3.3 23 -5 88 88 WSW 12 19 29.92 1013 10 16 0.00 0.00
5:53 pm 17:53 Clear 24 -4.4 20 -6.7 84 84 WSW 13 20 29.95 1014 10 16 0.00 0.00
6:53 pm 18:53 Clear 23 -5 19 -7.2 85 85 SW 15 24 29.97 1015 10 16 0.00 0.00
7:53 pm 19:53 Clear 23 -5 17 -8.3 78 78 SW 15 24 29.98 1015 10 16 0.00 0.00
8:53 pm 20:53 Clear 24 -4.4 17 -8.3 75 75 SW 21 33 29.99 1016 10 16 0.00 0.00
9:53 pm 21:53 Clear 22 -5.6 15 -9.4 75 75 WNW 9 15 30.01 1016 10 16 0.00 0.00
10:53 pm 22:53 Clear 21 -6.1 15 -9.4 78 78 SW 14 22 29.99 1016 10 16 0.00 0.00
11:53 pm 23:53 Clear 21 -6.1 14 -10 74 74 SW 14 22 29.99 1016 10 16 0.00 0.00

Powered by Vaisala Xweather